Погода в Цумебе

Намибия     19°14′51″S   17°42′45″E
темп.,
°C
ветер,
м/с
пор.,
м/с
влажн.,
%
обл.,
%
осадки,
мм/ч
давл.,
гПа
погр.,
м
13 апреля, вт
вт1323:00+18юв46420 0.0 102078
02:00+17юв510460 0.0 1019163
05:00+15юв46480 0.0 101983
08:00+17юв411500 0.0 1021268
11:00+24в89330 0.0 10201218
14:00+27всв78292 0.0 10162592
17:00+27в68295 0.0 10152861
20:00+21юв464011 0.0 101880
14 апреля, ср
ср1423:00+19юв59423 0.0 1019134
02:00+18юв511411 0.0 1018166
05:00+17вюв613371 0.0 1018242
08:00+17юв512420 0.0 1020257
11:00+24в89290 0.0 10191151
14:00+27в78262 0.0 10152634
17:00+27в68235 0.0 10132776
20:00+20юв44341 0.0 101638
15 апреля, чт
чт1523:00+18юв45350 0.0 101856
02:00+17юв46350 0.0 101778
05:00+17юв57370 0.0 101690
08:00+18юв410400 0.0 1018200
11:00+25в89290 0.0 10171036
14:00+28всв68255 0.0 10133141
17:00+27всв67246 0.0 10112854
20:00+22в233581 0.0 101437
16 апреля, пт
пт1623:00+20ю113866 0.0 101511
02:00+20вюв453892 0.0 101681
05:00+19в224284 0.0 101512
08:00+20в11484 0.0 101733
11:00+27всв48265 0.0 10153025
14:00+28всв772466 0.0 10133432
17:00+28всв562566 0.0 10112986
20:00+20всв344483 0.0 101546
17 апреля, сб
сб1723:00+18ю32526 0.0 101615
02:00+19ю224591 0.0 101411
05:00+17юв335292 0.0 101525
08:00+18юв485068 0.0 1016148
11:00+25в88295 0.0 10161015
14:00+28всв662789 0.0 10133249
17:00+25всв353415 0.0 1013688
20:00+23св343682 0.0 101562